Lapse_Rate
2.6 3.0 2.9 3.1 3.2 3.5 4.2 4.6 4.4 4.3 4.1 3.9 3.7 3.6 3.5 3.5 3.5 3.3 3.0 2.7 2.2 1.8 1.5 1.4 1.2 0.9 0.6 4.5 5.8 4.1 3.0 3.3 4.0 6.1 6.4 6.8 6.4 6.0 6.5 6.2 5.4 6.5 6.4 5.6 5.3 4.7 4.9
2.9 3.1 3.1 3.1 3.2 2.9 3.9 3.8 4.1 4.0 3.9 3.9 3.7 3.6 3.4 3.3 3.5 3.2 3.1 3.0 2.4 1.9 1.7 1.7 1.5 1.2 3.3 6.3 7.6 5.4 5.2 5.6 6.0 7.1 7.1 6.9 6.8 6.6 5.9 6.2 6.3 5.8 5.6 5.4 5.4 5.0 5.0
3.5 3.1 3.1 3.3 3.5 3.8 3.2 3.3 4.3 3.9 3.7 3.7 3.7 3.5 3.2 3.1 3.0 2.5 3.1 3.1 2.6 2.1 1.9 1.8 1.9 3.0 4.0 3.5 6.8 7.4 8.3 7.9 7.5 7.5 7.5 7.4 7.0 6.9 5.8 6.5 6.4 6.0 6.5 6.5 6.0 5.8 6.2
4.9 4.4 4.4 5.4 4.5 3.6 4.1 2.9 4.2 4.1 3.6 3.7 3.6 3.0 2.8 3.0 3.1 2.5 1.6 2.7 2.2 2.1 2.2 2.4 2.1 3.6 3.9 6.8 6.9 6.9 6.5 7.6 7.8 7.3 7.5 7.5 7.5 6.9 6.7 6.2 6.1 6.5 6.5 6.5 6.5 6.4 6.3
6.0 6.3 5.8 5.3 4.9 4.5 4.1 4.2 3.9 4.3 4.1 3.2 3.9 3.7 3.2 3.2 3.0 2.7 2.0 2.4 2.3 1.7 1.9 2.6 2.8 4.6 5.6 7.3 6.8 7.2 6.5 6.8 7.0 7.3 7.6 9.0 7.8 6.7 6.2 6.5 6.5 6.5 6.5 6.5 6.5 6.1 6.5
8.1 7.5 6.7 6.2 4.5 4.1 4.4 4.0 4.0 3.9 4.2 4.2 3.9 4.1 3.6 3.2 2.9 2.5 2.1 2.0 2.9 1.9 4.3 5.3 6.7 6.4 5.5 6.5 7.5 8.5 7.7 8.0 7.6 7.1 7.0 6.7 5.7 6.5 6.5 6.5 6.5 6.5 6.5 6.5 6.5 6.5 6.5
8.0 8.0 7.4 7.2 6.3 5.5 5.4 4.8 4.7 4.6 4.1 4.3 4.5 4.1 3.8 4.5 2.6 1.7 1.3 2.9 4.2 3.9 5.6 5.2 6.0 4.4 7.4 7.9 8.1 7.0 7.6 7.6 7.5 6.5 6.5 5.8 6.5 6.5 6.5 6.5 6.5 6.5 6.5 6.5 6.5 6.5 6.5
8.4 8.2 7.6 7.1 7.2 6.1 5.6 6.1 6.2 5.8 4.8 4.6 5.1 5.5 4.7 4.2 2.4 1.8 2.5 5.0 6.5 6.0 5.7 6.5 5.6 6.6 7.3 8.3 7.2 7.6 8.1 6.5 6.2 6.5 6.3 6.5 6.5 6.5 6.5 6.5 6.5 6.5 6.5 6.5 6.5 6.5 6.5
8.6 8.6 8.2 7.6 7.5 7.2 6.2 6.2 6.1 5.9 5.6 5.1 5.3 5.7 4.8 3.5 2.4 2.2 3.7 4.9 7.0 7.5 6.0 7.0 6.8 7.2 7.7 7.1 7.0 7.0 6.9 6.2 6.3 6.5 6.5 6.5 6.5 6.5 6.5 6.5 6.5 6.5 6.5 6.5 6.5 6.5 6.5
8.3 8.5 8.9 8.6 8.0 7.4 6.8 6.2 6.1 5.9 5.7 5.5 5.7 5.5 3.6 2.5 3.5 3.8 5.0 5.0 6.0 6.1 6.5 6.5 6.6 7.2 7.9 7.4 6.5 7.4 7.5 6.4 6.4 6.5 6.5 6.5 6.4 6.5 6.5 6.5 6.5 6.5 6.5 6.5 6.5 6.5 6.5
8.7 8.4 8.2 8.4 8.4 7.8 7.2 6.5 6.1 5.9 5.8 5.6 5.4 3.5 2.5 5.2 4.4 4.7 5.7 6.3 5.8 5.2 6.5 6.5 6.6 7.8 6.9 6.3 6.6 7.0 7.2 6.6 6.5 6.5 6.5 6.5 6.5 6.5 6.5 6.5 6.5 6.5 6.5 6.5 6.5 6.5 6.5
8.6 8.5 8.6 8.3 8.2 8.0 7.5 6.9 6.4 6.1 5.8 5.7 4.8 3.2 3.0 3.8 4.3 6.0 6.7 5.8 5.7 6.5 6.5 6.5 6.7 6.5 6.5 6.5 6.6 6.8 6.9 6.8 6.8 6.5 6.5 6.5 5.9 6.4 6.5 6.5 6.5 6.5 6.5 6.5 6.5 6.5 6.5
8.7 8.6 8.5 8.5 8.6 8.4 7.8 7.3 7.0 6.5 6.2 5.8 5.0 3.8 3.7 5.3 5.1 6.2 6.1 5.8 6.5 6.5 6.5 6.5 6.5 6.5 6.5 6.5 6.5 6.5 6.5 6.5 6.5 6.5 6.5 6.5 6.5 6.5 6.3 6.5 6.5 6.5 6.5 6.5 6.5 6.5 6.5
8.3 8.5 8.6 8.6 8.4 8.6 8.5 7.8 7.3 7.0 6.8 6.6 5.6 4.0 4.2 4.8 5.9 5.7 5.0 6.4 6.5 6.5 6.5 6.5 6.5 6.5 6.5 6.5 6.5 6.5 6.5 6.5 6.5 6.5 6.5 6.5 6.5 6.5 6.5 6.5 6.5 6.5 6.5 6.5 6.5 6.5 6.5
8.4 8.6 8.7 8.6 8.2 8.4 8.6 8.2 7.7 7.3 7.0 7.1 6.5 5.0 3.3 4.2 5.3 5.1 6.0 6.5 6.5 6.5 6.5 6.5 6.5 6.5 6.5 6.5 6.5 6.5 6.5 6.5 6.5 6.5 6.5 6.5 6.5 6.5 6.5 6.5 6.5 6.5 6.5 6.5 6.5 6.5 6.5
8.6 8.5 8.5 8.7 8.7 8.6 8.3 8.5 8.5 7.8 7.2 7.4 5.6 4.4 4.0 3.4 4.2 5.3 6.4 6.5 6.5 6.5 6.5 6.5 6.5 6.5 6.5 6.5 6.5 6.5 6.5 6.5 6.5 6.5 6.2 6.5 6.5 6.5 6.5 6.5 6.4 6.5 6.5 6.5 6.5 6.5 6.5
8.5 8.5 8.4 8.3 8.6 8.6 8.3 8.4 8.4 8.1 7.5 7.5 5.6 5.8 4.2 3.8 5.0 6.6 6.5 6.5 6.5 6.8 6.7 6.5 6.5 6.5 6.5 6.5 6.5 6.5 6.5 6.5 6.5 6.5 6.3 6.5 6.5 6.5 6.5 6.5 6.5 6.5 6.5 6.5 6.5 6.5 6.5
8.4 8.4 8.3 8.2 8.4 8.5 8.7 8.7 8.4 8.2 7.8 7.3 6.2 6.5 5.1 5.4 6.4 6.5 6.5 6.5 6.3 6.5 6.6 6.5 6.5 6.5 6.5 6.5 6.5 6.5 6.5 6.5 5.8 6.0 6.5 6.5 6.5 6.5 6.5 6.5 6.5 6.5 6.5 6.5 6.5 6.5 6.5
8.5 8.4 8.3 8.1 8.1 8.1 8.2 8.3 8.1 8.0 7.8 6.2 6.0 5.5 5.4 5.7 6.5 6.5 6.5 6.5 6.6 6.5 6.5 6.5 6.5 6.5 6.5 6.5 6.5 6.5 6.5 6.2 5.3 6.4 6.5 6.5 6.5 6.5 6.5 6.5 6.5 6.5 6.5 6.5 6.5 6.5 6.5
8.7 8.5 8.2 8.4 8.3 8.3 8.2 8.1 7.7 7.9 7.8 5.6 5.1 6.5 5.8 6.0 6.2 6.5 6.5 6.5 6.5 6.7 6.5 6.6 6.5 6.4 6.5 6.5 6.5 6.5 6.5 6.5 6.1 6.2 6.2 5.5 6.5 6.5 6.5 6.5 6.5 6.5 6.5 6.5 6.5 6.5 6.5
8.5 8.5 8.4 8.3 8.2 8.5 8.6 8.4 7.6 8.0 7.9 6.1 5.4 6.5 6.2 6.5 6.5 6.5 6.5 6.5 6.5 6.5 6.5 6.1 6.5 6.5 6.5 6.5 6.5 6.5 6.5 6.5 6.3 6.6 6.4 6.5 6.5 6.5 6.5 6.5 6.5 6.5 6.5 6.5 6.5 6.5 6.5
8.7 8.5 8.4 8.4 8.3 8.0 8.5 8.2 8.3 8.1 7.9 6.6 6.1 6.3 5.9 5.6 6.3 6.5 6.5 6.5 6.5 6.5 6.5 6.5 6.5 6.5 6.5 6.5 6.5 6.5 6.5 6.5 6.5 6.5 6.5 6.5 6.5 6.5 6.5 6.5 6.5 6.5 6.5 6.5 6.5 6.5 6.5
8.9 8.7 8.5 8.2 8.4 8.0 8.0 8.3 8.2 7.7 7.7 7.0 6.8 5.7 5.1 5.9 6.5 6.5 6.5 6.5 6.5 6.5 6.0 6.1 6.3 6.5 6.5 6.5 6.0 5.6 5.4 5.6 6.4 6.5 6.5 6.5 6.5 6.5 6.5 6.5 6.5 6.5 6.5 6.5 6.5 6.5 6.5
9.3 9.3 8.7 8.3 8.0 8.1 8.1 8.2 8.2 7.8 7.9 7.0 6.9 6.2 5.0 6.5 6.5 6.5 6.5 6.5 6.5 6.5 6.5 5.7 5.1 6.5 6.2 5.0 5.3 5.3 5.6 6.6 6.0 6.4 6.1 6.5 6.5 6.5 6.5 6.5 6.5 6.5 6.5 6.5 6.5 6.5 6.5
8.3 8.6 8.7 8.7 8.5 7.8 8.1 8.1 7.9 7.8 8.0 7.0 6.3 5.6 4.3 6.5 6.5 6.5 6.5 6.5 6.5 5.8 6.4 6.2 6.2 4.8 4.6 5.6 6.5 6.5 6.5 6.5 6.5 6.5 6.5 6.5 6.5 6.5 6.5 6.5 6.5 6.5 6.5 6.5 6.5 6.5 6.5
8.2 8.2 8.3 8.5 9.1 8.3 7.9 8.3 8.0 7.8 8.0 7.7 6.4 5.2 4.8 6.2 6.4 6.9 6.5 6.2 6.5 6.5 6.5 6.2 5.8 4.4 5.1 6.4 6.5 6.5 6.5 6.5 6.5 6.5 6.5 6.5 6.5 6.5 6.5 6.5 6.5 6.5 6.5 6.6 6.5 6.5 6.5
7.6 8.2 8.7 8.6 8.8 8.7 7.9 8.0 8.0 7.9 8.5 7.6 7.1 6.0 5.6 5.3 5.0 4.9 6.4 6.4 5.3 5.9 6.5 6.0 5.8 6.0 5.2 6.5 6.5 6.5 6.5 6.5 6.5 6.5 6.5 6.5 6.5 6.5 6.5 6.5 6.5 6.5 6.5 6.8 6.5 6.5 6.5
7.7 7.7 7.6 7.4 7.4 8.7 7.8 7.8 7.8 7.9 8.3 7.5 7.1 6.6 6.3 5.0 5.2 4.2 5.7 5.3 5.4 5.1 6.5 5.2 5.9 6.1 6.3 6.5 6.5 6.5 6.5 6.5 6.5 6.5 6.5 6.5 6.5 6.5 6.5 6.5 6.5 6.3 6.5 6.5 6.3 5.2 5.5
6.2 7.5 7.5 7.5 7.5 8.2 7.7 7.5 7.7 7.9 8.0 7.9 7.2 7.4 6.5 5.3 5.7 5.8 5.9 3.6 5.6 6.0 4.3 6.1 6.0 6.1 4.8 6.5 6.5 6.5 6.5 6.5 6.5 6.5 6.5 6.5 6.5 6.5 6.5 6.5 6.3 6.6 6.4 6.5 5.1 4.3 4.5
Wind_Speed
9 13 11 11 10 12 14 21 22 22 21 21 21 19 17 16 15 13 12 11 11 11 14 17 20 23 9 5 6 5 5 4 2 3 7 8 5 5 5 4 8 6 5 9 10 10 8
12 13 13 14 15 11 14 15 21 23 22 22 21 19 18 16 15 14 13 12 11 10 13 15 18 20 1 4 3 14 9 5 6 5 10 7 5 6 6 5 4 5 10 10 10 9 7
13 16 15 13 14 15 14 14 19 19 19 20 21 21 19 19 20 16 14 13 9 10 12 13 14 7 4 11 8 5 7 4 5 5 7 8 8 1 6 7 6 7 10 10 10 13 10
11 11 12 13 15 13 14 13 20 18 17 20 22 19 20 20 20 19 16 13 10 10 11 14 7 4 7 7 11 6 7 5 7 9 6 8 6 5 2 6 7 7 6 4 12 14 18
9 6 6 7 8 11 13 13 16 18 17 16 20 19 19 21 21 20 17 11 12 11 12 14 3 3 9 6 3 8 7 7 10 8 6 9 3 2 5 5 5 6 5 9 11 11 4
11 8 7 7 5 10 14 15 15 15 17 17 17 17 17 20 20 19 15 8 8 6 8 8 6 3 7 5 7 2 5 8 4 3 4 5 2 3 2 3 4 5 7 9 9 5 6
12 8 7 9 5 7 10 13 13 15 14 14 14 15 16 18 19 21 12 1 2 2 5 10 7 7 5 5 4 6 6 6 3 4 6 5 3 7 11 12 13 13 11 10 8 8 13
10 8 9 8 8 6 8 8 5 9 11 14 14 14 14 17 23 22 8 3 4 4 6 15 20 20 18 11 11 9 4 6 7 7 6 6 10 15 14 14 13 8 8 10 11 8 8
14 14 10 10 11 7 6 7 7 6 6 11 12 13 13 22 22 8 5 6 4 2 3 9 21 14 14 17 15 16 8 7 7 6 8 11 10 10 13 12 15 7 6 8 14 6 5
14 14 16 12 12 8 8 8 8 6 7 5 9 13 23 26 9 5 2 6 8 5 3 7 8 6 13 7 6 6 10 9 6 11 11 11 13 15 10 9 9 5 6 11 10 7 5
18 14 13 14 11 9 8 10 9 7 6 6 4 29 35 24 10 6 6 9 4 4 3 4 4 0 5 10 3 2 5 5 10 10 7 8 5 5 6 5 5 4 6 5 5 7 6
18 15 14 13 12 12 10 9 10 8 6 5 14 29 33 3 2 3 11 10 4 2 8 4 5 5 5 5 3 3 3 4 3 3 9 13 9 8 8 3 2 6 4 7 6 1 6
19 18 16 14 13 12 10 9 8 9 7 4 16 26 17 10 5 6 12 5 3 5 6 6 6 8 10 8 7 5 5 4 4 3 5 8 14 13 11 5 3 2 3 3 3 1 8
22 20 17 16 15 14 11 12 10 9 9 6 11 24 7 5 11 13 3 3 6 9 14 8 6 12 10 6 9 10 7 6 10 9 4 3 7 5 6 7 8 6 5 3 4 3 9
24 22 20 18 17 17 16 13 10 9 9 8 6 5 1 2 7 8 5 5 9 9 6 12 13 6 8 11 6 8 10 7 7 14 8 4 5 4 7 4 4 1 2 1 2 9 9
26 24 23 21 19 18 17 15 13 12 11 10 2 2 2 1 11 1 6 12 9 11 15 10 5 9 6 10 8 6 6 6 14 3 5 1 3 3 2 1 3 6 3 3 3 4 7
27 26 24 23 22 20 19 17 16 16 13 11 3 2 2 13 3 2 4 9 9 14 13 9 10 9 10 7 11 8 8 1 3 4 6 3 4 3 5 1 4 3 2 4 6 4 3
26 26 25 24 22 23 22 21 22 21 17 11 4 5 4 7 3 1 8 6 10 14 13 11 5 3 5 5 4 3 10 2 6 7 6 2 2 2 5 9 13 6 6 6 4 6 5
27 27 27 27 27 26 25 24 24 24 23 4 5 2 1 1 8 5 5 11 9 7 14 2 8 5 3 4 3 4 7 5 7 5 5 2 1 2 7 5 4 3 3 6 3 2 9
29 29 30 31 30 30 29 27 26 24 24 5 4 4 1 1 0 9 9 15 15 10 18 7 8 8 3 5 4 2 6 1 4 6 7 7 2 6 6 3 5 6 10 6 3 3 3
30 31 30 32 31 32 32 31 30 28 27 9 4 4 7 6 11 10 11 8 18 13 17 12 14 8 6 5 1 4 6 5 4 7 3 4 3 1 4 8 11 12 12 12 7 9 4
31 31 31 32 31 35 35 34 33 34 29 11 7 4 4 5 10 14 7 11 15 18 8 12 8 8 7 6 6 3 6 4 5 5 4 1 2 3 5 11 14 17 14 13 10 9 2
32 32 31 31 31 33 35 36 36 37 28 9 6 5 7 8 11 13 18 18 13 8 7 10 8 7 6 6 4 6 5 3 9 8 6 5 4 2 5 7 6 8 13 12 8 6 4
36 35 33 31 31 32 35 36 38 39 33 9 8 6 4 5 13 19 18 18 17 15 9 7 7 8 4 10 9 7 7 2 7 8 9 5 5 2 3 5 4 5 3 4 4 5 10
39 37 36 35 33 32 33 37 39 39 37 10 5 6 4 5 12 14 17 21 17 11 3 1 3 6 9 7 4 4 2 2 4 6 8 6 4 2 2 3 3 1 2 3 3 5 9
43 42 40 37 36 35 32 35 38 38 36 14 13 5 2 3 5 15 18 11 12 10 5 3 1 7 7 3 3 6 5 5 5 4 11 7 5 4 2 3 3 3 4 5 1 4 12
42 44 43 43 41 39 36 34 36 37 36 15 7 15 2 3 4 7 12 12 8 6 6 5 4 3 5 3 4 3 4 7 5 7 8 6 5 12 6 4 4 5 6 7 1 4 13
41 39 38 39 44 44 39 37 35 35 35 19 10 4 4 3 1 6 7 7 7 8 9 9 5 3 2 5 4 4 3 4 4 5 7 8 6 4 4 4 7 3 4 4 3 4 7
42 37 37 36 44 46 41 38 34 33 33 26 7 8 3 2 1 3 7 6 13 8 8 9 5 7 4 4 3 3 2 1 3 2 6 4 5 4 4 2 1 2 3 1 4 5 3
Wind_Direction
287 285 283 290 303 304 281 238 231 233 232 233 232 234 231 232 231 235 250 267 289 311 324 329 334 334 344 345 259 175 190 211 273 276 267 300 326 301 290 301 342 299 306 324 315 342 312
263 269 261 249 258 273 284 294 253 233 233 234 234 233 234 231 229 232 246 257 278 305 319 327 333 328 283 283 126 162 192 194 234 220 274 277 264 283 290 294 279 296 310 308 311 287 288
282 247 251 260 254 235 244 258 271 248 233 240 233 229 231 233 221 216 232 250 268 299 311 319 330 314 282 243 323 283 218 239 278 302 295 289 324 47 341 327 303 323 314 300 279 278 267
308 252 256 241 249 255 262 250 259 254 249 245 237 224 224 230 224 214 201 229 261 280 301 307 332 301 255 259 295 308 286 267 258 269 277 299 316 358 320 295 324 315 288 273 264 256 258
295 281 283 262 275 278 269 259 260 258 251 243 241 237 225 229 219 210 189 217 243 274 288 283 270 193 265 309 231 244 213 234 232 228 253 274 318 219 318 296 312 232 257 256 280 291 162
272 279 288 283 296 300 283 266 263 261 250 242 241 237 238 227 214 185 176 188 245 307 266 243 252 319 262 220 183 209 221 228 280 253 209 246 273 213 291 154 227 260 282 286 300 309 7
251 276 315 292 281 305 317 269 259 262 253 251 245 239 234 220 185 151 122 164 268 188 245 204 191 230 266 289 118 198 227 210 241 277 211 209 171 230 226 222 232 253 278 296 300 348 338
244 251 269 298 287 291 317 326 300 265 257 242 235 231 225 194 156 150 120 225 253 143 291 237 254 245 252 270 274 233 228 175 200 232 254 259 249 239 238 258 262 280 305 303 297 325 297
249 253 251 268 282 290 297 315 327 319 288 246 236 227 197 154 139 131 181 203 281 143 283 236 226 237 230 222 236 247 205 207 208 253 236 236 249 269 254 267 243 249 252 284 291 303 308
258 251 248 248 261 258 289 292 303 316 320 296 230 197 143 135 134 152 209 252 264 84 302 262 213 241 224 209 250 232 224 207 208 232 262 265 245 252 281 299 296 282 337 326 308 344 287
250 248 252 244 242 262 262 279 283 297 317 327 224 145 147 155 131 163 200 188 165 63 307 204 51 149 77 147 108 175 180 194 234 213 231 242 294 307 293 298 272 296 36 358 338 327 354
244 248 246 246 240 239 247 259 274 279 307 337 170 162 160 105 65 227 149 132 84 97 245 220 121 152 138 194 199 75 78 47 28 310 263 268 286 280 260 201 77 352 20 11 330 323 270
240 239 241 248 248 239 242 246 263 271 285 316 179 171 167 162 177 164 124 112 117 209 235 189 172 162 179 187 217 175 172 179 203 171 244 267 250 249 245 216 149 59 33 333 327 291 233
224 228 234 234 232 241 234 246 243 256 268 286 195 177 222 186 160 137 99 111 193 208 239 336 117 155 186 194 207 210 172 206 221 240 282 267 323 347 359 201 181 172 137 183 249 294 299
231 228 223 233 235 233 230 230 235 253 255 264 218 185 194 223 188 143 159 231 198 209 241 235 256 203 191 219 210 184 189 215 232 208 194 208 256 82 50 47 80 72 187 210 329 286 282
232 230 231 229 230 230 224 223 236 236 249 237 132 132 221 55 105 38 189 207 235 232 266 298 276 182 216 200 210 138 180 202 226 278 132 42 340 305 351 292 214 151 152 33 343 292 260
234 233 229 229 229 226 223 220 228 229 223 214 122 183 123 124 81 194 191 213 251 262 271 272 256 266 217 231 181 175 191 79 129 99 60 91 127 272 20 233 255 257 206 205 178 192 237
232 232 232 230 226 228 229 227 225 218 211 183 142 217 169 164 132 170 222 190 228 254 240 269 290 304 275 213 277 260 207 190 121 119 131 55 121 268 242 290 281 288 247 203 176 233 246
232 229 228 226 225 224 222 224 224 213 201 153 150 102 332 262 185 203 225 229 249 261 253 318 244 227 2 321 340 246 89 9 89 107 132 104 168 8 316 328 1 38 359 353 334 137 220
235 233 232 228 224 221 217 217 214 215 210 182 129 150 148 176 229 223 201 225 232 249 251 210 254 255 244 291 250 204 106 84 48 83 86 85 200 169 235 219 304 303 301 289 289 232 217
236 235 238 229 227 222 215 212 210 218 207 194 159 187 169 171 218 206 196 212 218 235 223 204 218 202 183 229 286 184 97 98 80 117 84 112 202 170 278 281 281 275 264 266 248 257 202
238 234 230 229 232 225 217 209 209 213 207 215 183 180 146 196 185 190 184 206 229 236 238 221 228 186 211 176 172 212 161 140 177 147 124 126 247 84 293 275 255 253 255 259 247 256 217
234 230 227 226 225 220 214 208 204 211 200 211 215 221 144 167 175 180 209 207 214 233 243 207 207 182 199 175 112 86 78 66 160 147 157 160 144 94 265 268 286 263 231 232 239 213 175
233 228 223 219 218 214 212 207 205 209 199 210 195 195 163 198 170 199 201 208 224 216 205 228 198 146 138 92 72 50 28 40 155 176 154 150 131 150 271 324 245 239 352 311 104 92 104
234 228 222 218 213 211 208 207 203 205 203 203 242 199 170 212 196 185 203 201 212 248 227 179 341 134 116 79 83 78 344 352 240 197 161 137 136 212 209 225 255 213 216 177 166 213 154
231 225 220 214 209 208 204 200 200 202 198 203 218 285 188 167 237 183 189 200 197 206 113 207 18 126 89 106 118 199 184 189 183 211 165 149 143 156 282 262 281 199 187 127 312 271 163
225 222 218 213 207 200 196 194 195 198 195 196 206 227 256 210 277 182 186 198 152 145 150 140 118 58 90 117 188 195 226 189 191 188 169 166 172 216 226 254 272 136 159 133 159 250 145
218 211 208 205 198 193 188 188 192 193 190 188 206 161 204 200 297 24 295 177 153 166 161 171 79 319 109 169 194 188 205 233 153 196 172 168 164 186 194 231 244 39 98 199 205 45 138
205 194 196 196 194 183 180 183 185 187 182 180 209 187 286 178 356 116 221 340 173 159 125 166 136 154 160 162 203 178 360 35 171 228 169 174 182 176 171 191 146 4 94 113 101 121 92